カタログに戻る

FENGYUN 1C DEB

LostSSO
NORAD 32450·DEBRIS·🇨🇳 China

打ち上げ May 10, 1999 から Taiyuan Satellite Launch Center

Loading…

次のパス (今後24時間)

TLE

古いSource: Space-Track

元期: Jul 26, 2024, 16:50 UTC

1 32450U 99025DBN 24208.70139087  .00006210  00000-0  35373-2 0  9992
2 32450  99.1839 176.5968 0091784 276.3319  82.7403 14.08007954873535

AllMySatでFENGYUN 1C DEBをリアルタイム追跡

Download on the App Store